Date String (YYYY-MM-DD hh:mm:ss) UTC,Instrument flags,Ambient pressure (hPa),Sample flow (lpm),Bypass flow (lpm),Sample temperature (°C),Ambient temperature (°C),ASC tube jacket temperature (°C),LED temperature (°C),Box temperature (°C),Sample RH (%),Span deviation,Mass concentration (μg/m³),Mass concentration (μg/m³),Mass concentration (μg/m³)
DateTimeUTC,F1_M11,P_M11,Q1_M11,Q2_M11,T1_M11,T2_M11,T3_M11,T4_M11,T5_M11,U1_M11,ZSPAN_M11,X0_M11,X2_M11,X1_M11
2022-12-25 20:00:00,,0824.2,4.97,0.00,21.9,20.9,00.0,30.7,23.8,15.0,0000.0,0000.62,0000.29,0000.21
2022-12-25 20:01:00,,0824.2,4.97,0.00,21.9,20.9,00.0,30.7,23.8,15.2,0000.0,0000.46,0000.28,0000.21
2022-12-25 20:02:00,,0824.2,5.02,0.00,21.9,20.9,00.0,30.7,23.8,15.1,0000.0,0000.58,0000.30,0000.22
2022-12-25 20:03:00,,0824.2,5.02,0.00,21.9,20.9,00.0,30.7,23.8,14.9,0000.0,0000.55,0000.29,0000.22
2022-12-25 20:04:00,,0824.2,5.00,0.00,21.9,20.8,00.0,30.7,23.8,14.8,0000.0,0000.54,0000.28,0000.22
2022-12-25 20:05:00,,0824.2,4.97,0.00,21.9,20.8,00.0,30.7,23.8,14.5,0000.0,0000.58,0000.27,0000.20
2022-12-25 20:06:00,,0824.2,4.99,0.00,21.9,20.7,00.0,30.7,23.8,14.9,0000.0,0000.62,0000.27,0000.20
2022-12-25 20:07:00,,0824.2,5.02,0.00,21.9,20.7,00.0,30.8,23.8,15.0,0000.0,0001.69,0000.26,0000.19
2022-12-25 20:08:00,,0824.3,5.03,0.00,21.9,20.6,00.0,30.8,23.7,14.9,0000.0,0001.81,0000.25,0000.18
2022-12-25 20:09:00,,0824.2,4.99,0.00,21.9,20.6,00.0,30.8,23.8,15.4,0000.0,0001.81,0000.25,0000.17
2022-12-25 20:10:00,,0824.1,4.98,0.00,21.9,20.7,00.0,30.8,23.7,15.7,0000.0,0001.78,0000.24,0000.16
2022-12-25 20:11:00,,0824.0,4.98,0.00,21.9,20.7,00.0,30.8,23.7,15.7,0000.0,0001.79,0000.23,0000.15
2022-12-25 20:12:00,,0824.0,5.01,0.00,21.9,20.8,00.0,30.8,23.6,15.7,0000.0,0001.79,0000.24,0000.16
2022-12-25 20:13:00,,0823.9,5.02,0.00,21.9,20.8,00.0,30.8,23.6,15.4,0000.0,0001.64,0000.21,0000.15
2022-12-25 20:14:00,,0824.0,5.00,0.00,21.9,20.8,00.0,30.8,23.7,15.7,0000.0,0002.44,0000.20,0000.14
2022-12-25 20:15:00,,0824.0,4.99,0.00,21.9,20.8,00.0,30.8,23.7,15.9,0000.0,0002.81,0000.21,0000.13
2022-12-25 20:16:00,,0823.9,4.97,0.00,21.9,20.8,00.0,30.8,23.7,15.9,0000.0,0002.75,0000.20,0000.13
2022-12-25 20:17:00,,0824.0,5.00,0.00,21.9,20.8,00.0,30.8,23.7,16.0,0000.0,0002.70,0000.20,0000.13
2022-12-25 20:18:00,,0824.1,5.01,0.00,22.0,20.9,00.0,30.8,23.8,15.8,0000.0,0001.64,0000.21,0000.12
2022-12-25 20:19:00,,0824.0,5.03,0.00,22.0,20.8,00.0,30.8,23.7,15.8,0000.0,0001.50,0000.22,0000.12
2022-12-25 20:20:00,,0824.0,4.99,0.00,22.0,20.8,00.0,30.8,23.7,15.9,0000.0,0001.52,0000.22,0000.12
2022-12-25 20:21:00,,0824.0,4.97,0.00,22.0,20.8,00.0,30.8,23.8,16.0,0000.0,0001.55,0000.23,0000.13
2022-12-25 20:22:00,,0824.0,4.99,0.00,22.0,20.8,00.0,30.8,23.8,15.8,0000.0,0001.54,0000.23,0000.13
2022-12-25 20:23:00,,0824.0,5.03,0.00,22.0,20.8,00.0,30.8,23.8,15.8,0000.0,0001.54,0000.23,0000.13
2022-12-25 20:24:00,,0824.0,5.03,0.00,22.0,20.8,00.0,30.8,23.7,15.7,0000.0,0001.53,0000.23,0000.13
2022-12-25 20:25:00,,0824.1,4.96,0.00,22.0,20.8,00.0,30.8,23.7,15.8,0000.0,0000.64,0000.24,0000.13
2022-12-25 20:26:00,,0824.1,4.97,0.00,22.0,20.8,00.0,30.8,23.7,15.2,0000.0,0000.39,0000.23,0000.14
2022-12-25 20:27:00,,0824.1,4.98,0.00,22.0,20.8,00.0,30.8,23.8,15.6,0000.0,0000.51,0000.27,0000.15
2022-12-25 20:28:00,,0824.0,5.01,0.00,22.0,20.8,00.0,30.8,23.8,15.7,0000.0,0000.57,0000.30,0000.15
2022-12-25 20:29:00,,0824.0,5.02,0.00,22.0,20.8,00.0,30.9,23.8,15.0,0000.0,0000.56,0000.29,0000.16
2022-12-25 20:30:00,,0824.1,4.98,0.00,22.0,20.8,00.0,30.9,23.7,14.5,0000.0,0000.54,0000.28,0000.17
2022-12-25 20:31:00,,0824.1,4.99,0.00,22.0,20.8,00.0,30.9,23.7,14.7,0000.0,0000.50,0000.26,0000.17
2022-12-25 20:32:00,,0824.0,5.03,0.00,22.0,20.8,00.0,30.9,23.7,14.9,0000.0,0000.47,0000.25,0000.17
2022-12-25 20:33:00,,0824.0,5.03,0.00,22.0,20.8,00.0,30.9,23.8,14.7,0000.0,0000.46,0000.25,0000.18
2022-12-25 20:34:00,,0824.1,4.97,0.00,22.0,20.8,00.0,30.9,23.8,14.4,0000.0,0000.43,0000.24,0000.17
2022-12-25 20:35:00,,0824.1,4.99,0.00,22.0,20.8,00.0,30.9,23.8,14.6,0000.0,0000.44,0000.24,0000.18
2022-12-25 20:36:00,,0824.1,5.02,0.00,22.0,20.8,00.0,30.9,23.8,14.8,0000.0,0000.41,0000.23,0000.17
2022-12-25 20:37:00,,0824.2,5.03,0.00,22.0,20.8,00.0,30.9,23.8,14.7,0000.0,0000.41,0000.23,0000.17
2022-12-25 20:38:00,,0824.2,4.98,0.00,22.0,20.7,00.0,30.9,23.8,15.0,0000.0,0000.43,0000.21,0000.17
2022-12-25 20:39:00,,0824.0,4.97,0.00,22.0,20.7,00.0,30.9,23.8,14.7,0000.0,0000.35,0000.18,0000.17
2022-12-25 20:40:00,,0824.1,4.99,0.00,22.0,20.7,00.0,30.9,23.8,13.7,0000.0,0000.35,0000.18,0000.17
2022-12-25 20:41:00,,0824.2,5.03,0.00,22.0,20.6,00.0,30.9,23.8,14.3,0000.0,0000.35,0000.18,0000.16
2022-12-25 20:42:00,,0824.3,5.01,0.00,22.0,20.6,00.0,30.9,23.7,14.4,0000.0,0000.38,0000.19,0000.16
2022-12-25 20:43:00,,0824.1,5.00,0.00,22.0,20.6,00.0,30.9,23.7,14.5,0000.0,0000.41,0000.20,0000.16
2022-12-25 20:44:00,,0824.2,4.95,0.00,22.0,20.6,00.0,30.9,23.8,13.8,0000.0,0000.44,0000.21,0000.16
2022-12-25 20:45:00,,0824.3,5.00,0.00,22.0,20.6,00.0,30.9,23.7,14.1,0000.0,0000.48,0000.24,0000.17
2022-12-25 20:46:00,,0824.2,5.02,0.00,22.0,20.5,00.0,30.9,23.7,14.1,0000.0,0000.50,0000.25,0000.17
2022-12-25 20:47:00,,0824.3,5.02,0.00,21.9,20.5,00.0,30.8,23.7,14.3,0000.0,0000.53,0000.27,0000.17
2022-12-25 20:48:00,,0824.4,4.99,0.00,21.9,20.5,00.0,30.8,23.7,14.5,0000.0,0000.58,0000.29,0000.17
2022-12-25 20:49:00,,0824.2,4.96,0.00,21.9,20.5,00.0,30.8,23.7,14.0,0000.0,0000.50,0000.30,0000.17
2022-12-25 20:50:00,,0824.3,5.02,0.00,21.9,20.5,00.0,30.8,23.7,14.1,0000.0,0000.54,0000.31,0000.18
2022-12-25 20:51:00,,0824.3,5.03,0.00,21.9,20.5,00.0,30.8,23.6,14.1,0000.0,0000.55,0000.31,0000.18
2022-12-25 20:52:00,,0824.4,4.98,0.00,21.9,20.4,00.0,30.8,23.6,14.3,0000.0,0000.55,0000.32,0000.18
2022-12-25 20:53:00,,0824.4,4.97,0.00,21.9,20.4,00.0,30.8,23.5,14.0,0000.0,0000.52,0000.30,0000.18
2022-12-25 20:54:00,,0824.5,5.02,0.00,21.8,20.4,00.0,30.8,23.5,14.3,0000.0,0000.50,0000.30,0000.18
2022-12-25 20:55:00,,0824.6,4.99,0.00,21.8,20.4,00.0,30.8,23.5,14.8,0000.0,0000.51,0000.31,0000.18
2022-12-25 20:56:00,,0824.6,5.02,0.00,21.8,20.4,00.0,30.8,23.5,14.6,0000.0,0001.00,0000.29,0000.18
2022-12-25 20:57:00,,0824.6,5.00,0.00,21.8,20.4,00.0,30.8,23.5,14.7,0000.0,0001.89,0000.29,0000.18
2022-12-25 20:58:00,,0824.5,4.97,0.00,21.8,20.4,00.0,30.7,23.5,14.7,0000.0,0001.86,0000.28,0000.18
2022-12-25 20:59:00,,0824.4,5.01,0.00,21.8,20.3,00.0,30.7,23.5,14.7,0000.0,0001.81,0000.25,0000.18
